Location: Avully
(45.9633°N, 6.0228°E)
Time: 20:41:02
(UTC+00:00)

Cosmos 2360 Rocket - Pass Details

Date: 08 August 2024
Orbit: 834 x 843 km, 71.0° (Epoch: 10 September)

Event Time Altitude Azimuth Distance (km) Brightness Sun altitude
Exits shadow 03:24:00 - 279° (W) 3,170 4.8 -10.3°
Reaches altitude 10° 03:27:40 10° 308° (NW) 2,468 4.5 -9.8°
Maximum altitude 03:29:25 11° 326° (NW) 2,372 4.6 -9.6°
Drops below altitude 10° 03:31:10 10° 344° (NNW) 2,470 4.9 -9.3°
Sets 03:35:44 0° 18° (NNE) 3,406 6.3 -8.7°
